Regional Weather Roundup
Issued by NWS State College, PA

Home | Current Version | Previous Version | Text Only | Print | Product List | Glossary On
Versions: 1 2 3 4 5 6 7 8 9 10 11 12 13 14 15 16 17 18 19 20 21 22 23 24 25 26 27 28 29 30 31 32 33 34 35 36 37 38 39 40 41 42 43 44 45 46 47 48 49 50
000
ASUS41 KCTP 211210
RWRCTP

REGIONAL WEATHER ROUNDUP
NATIONAL WEATHER SERVICE STATE COLLEGE PA
800 AM EDT MON AUG 21 2017

Note: "fair" indicates few or no clouds below 12,000 feet with no
significant weather and/or obstructions to visibility.

* = STATION THAT DOES NOT REPORT PRECIPITATION /E.G. RAIN...SNOW...ETC/
    THUNDER OR FOG.

PAZ002>004-007>009-013>016-020>023-029>032-211300-
WESTERN PENNSYLVANIA

CITY           SKY/WX    TMP DP  RH WIND       PRES   REMARKS
ERIE           MOSUNNY   74  62  66 S8        30.14R
MEADVILLE      MOSUNNY   69  62  78 S6        30.18R
FRANKLIN*      MOSUNNY   64  57  77 S9        30.19R
NEW CASTLE     FAIR      67  64  90 CALM      30.18R
BEAVER COUNTY  MOSUNNY   66  63  88 S5        30.18S
BUTLER*        PTSUNNY   68  63  83 CALM      30.19S
PITTSBURGH INT PTSUNNY   68  64  87 S3        30.18R
PITTSBURGH     MOSUNNY   67  62  84 S8        30.18R
INDIANA*       SUNNY     68  64  88 CALM      30.23S
LATROBE        PTSUNNY   64  64 100 CALM      30.21R
WASHINGTON CO* PTSUNNY   66  63  88 CALM      30.20R
$$

PAZ004>006-010>012-017>019-024>028-033>037-041-042-045-046-049>053-211300-
CENTRAL PENNSYLVANIA

CITY           SKY/WX    TMP DP  RH WIND       PRES   REMARKS
BRADFORD       MOSUNNY   62  61  96 SE5       30.21F
DUBOIS         MOSUNNY   64  59  83 E3        30.20S
CLEARFIELD     PTSUNNY   58  58 100 N5        30.23R FOG
JOHNSTOWN      PTSUNNY   68  64  87 S6        30.25S
ALTOONA        SUNNY     65  64  97 CALM      30.24R FOG
STATE COLLEGE  SUNNY     63  61  94 CALM      30.22S
WILLIAMSPORT   PTSUNNY   65  63  93 CALM      30.19S
SELINSGROVE    FOG       64  64 100 CALM      30.21S VSB 1/4
FT INDIANTOWN  PTSUNNY   65  65 100 CALM      30.22R
CAPITAL CITY   PTSUNNY   69  64  84 E5        30.21R
HARRISBURG     CLOUDY    69  65  86 E3        30.20S
YORK           MOSUNNY   67  66  97 CALM      30.21S
$$

PAZ038>040-043-044-047-048-054-055-060>062-067>071-211300-
EASTERN PENNSYLVANIA

CITY           SKY/WX    TMP DP  RH WIND       PRES   REMARKS
SCRANTON       SUNNY     67  61  81 NE6       30.23S
MOUNT POCONO     N/A     63  62  97 CALM      30.27R
ALLENTOWN      SUNNY     66  62  87 CALM      30.23R
QUAKERTOWN*    SUNNY     64  63  94 CALM      30.24R
READING        SUNNY     66  65  96 CALM      30.21S
LANCASTER      MOSUNNY   66  65  96 E3        30.22R FOG
COATESVILLE    MOSUNNY   70  66  88 CALM      30.25R
POTTSTOWN      MOSUNNY   66  65  96 CALM      30.24S FOG
BLUE BELL      SUNNY     64  64 100 CALM      30.24S
DOYLESTOWN     SUNNY     67  64  90 CALM      30.22R
WILLOW GROVE   NOT AVBL
NORTH PHILA    SUNNY     73  66  78 CALM      30.24R
PHILADELPHIA   PTSUNNY   72  67  84 S3        30.23R
$$




USA.gov is the U.S. government's official web portal to all federal, state and local government web resources and services.